This demonstration page uses our WeatherBlox Daily Observations layout. Learn more.

Left ArrowRight Arrow

Hourly Observations for January 20, 2022

Temp ( °F °C ) Dew Point ( °F °C ) Humidity (%) Winds ( mph kmh ) Pressure ( in mb ) Visibility ( mi km ) Precip ( " mm )
12:53 am 00:53 Cloudy 32 0 15 -9.4 50 50 N 21 33 30.34 1027 10 16 0.00 0.00
1:53 am 01:53 Cloudy 31 -0.6 14 -10 49 49 N 20 31 30.36 1028 10 16 0.00 0.00
2:53 am 02:53 Cloudy 30 -1.1 13 -10.6 49 49 N 17 28 30.39 1029 10 16 0.00 0.00
3:40 am 03:40 Cloudy 29 -1.7 13 -10.6 51 51 N 17 28 30.43 1031 10 16 0.00 0.00
3:53 am 03:53 Cloudy 29 -1.7 13 -10.6 51 51 N 16 26 30.40 1030 10 16 0.00 0.00
4:53 am 04:53 Cloudy 27 -2.8 12 -11.1 53 53 N 16 26 30.43 1030 10 16 0.00 0.00
5:53 am 05:53 Cloudy 27 -2.8 11 -11.7 51 51 N 15 24 30.45 1031 10 16 0.00 0.00
6:53 am 06:53 Cloudy 26 -3.3 11 -11.7 53 53 N 15 24 30.48 1032 10 16 0.00 0.00
7:00 am 07:00 Cloudy 27 -2.8 11 -11.7 51 51 N 15 24 30.51 1033 10 16 0.00 0.00
7:53 am 07:53 Cloudy 26 -3.3 10 -12.2 51 51 N 16 26 30.51 1033 10 16 0.00 0.00
8:53 am 08:53 Cloudy 25 -3.9 10 -12.2 53 53 N 12 19 30.53 1034 10 16 0.00 0.00
9:53 am 09:53 Cloudy 25 -3.9 8 -13.3 48 48 N 16 26 30.55 1035 10 16 0.00 0.00
10:53 am 10:53 Cloudy 26 -3.3 8 -13.3 46 46 N 14 22 30.56 1035 10 16 0.00 0.00
11:53 am 11:53 Cloudy 29 -1.7 9 -12.8 43 43 N 15 24 30.54 1034 10 16 0.00 0.00
12:53 pm 12:53 Cloudy 32 0 8 -13.3 36 36 N 18 30 30.51 1033 10 16 0.00 0.00
1:53 pm 13:53 Mostly Cloudy 36 2.2 7 -13.9 30 30 NNE 16 26 30.48 1032 10 16 0.00 0.00
2:53 pm 14:53 Partly Cloudy 36 2.2 6 -14.4 28 28 N 17 28 30.46 1031 10 16 0.00 0.00
3:53 pm 15:53 Mostly Cloudy 36 2.2 6 -14.4 28 28 N 16 26 30.46 1032 10 16 0.00 0.00
4:53 pm 16:53 Mostly Cloudy 34 1.1 6 -14.4 31 31 N 12 19 30.46 1032 10 16 0.00 0.00
5:53 pm 17:53 Partly Cloudy 32 0 6 -14.4 33 33 N 15 24 30.48 1032 10 16 0.00 0.00
6:53 pm 18:53 Mostly Cloudy 31 -0.6 6 -14.4 35 35 N 13 20 30.49 1033 10 16 0.00 0.00
7:53 pm 19:53 Partly Cloudy 30 -1.1 5 -15 34 34 N 9 15 30.50 1033 10 16 0.00 0.00
8:53 pm 20:53 Partly Cloudy 29 -1.7 4 -15.6 34 34 N 9 15 30.50 1033 10 16 0.00 0.00
9:53 pm 21:53 Partly Cloudy 29 -1.7 4 -15.6 34 34 N 9 15 30.50 1033 10 16 0.00 0.00
10:53 pm 22:53 Mostly Cloudy 29 -1.7 3 -16.1 33 33 N 10 17 30.50 1033 10 16 0.00 0.00
11:53 pm 23:53 Mostly Cloudy 29 -1.7 4 -15.6 34 34 N 8 13 30.50 1033 10 16 0.00 0.00

Powered by AerisWeather